Location: Avon
(38.0327°N, 122.0752°W)
Time: 04:29:26
(UTC+00:00)

Daily predictions for brighter satellites

Satellite Brightness Start Highest point End
(mag) Time Altitude Azimuth Time Altitude Azimuth Time Altitude Azimuth
H-2A ROCKET BODY 3.9 03:01:16 10° WSW 03:05:38 35° S 03:19:44 10° ESE
CZ-4B R/B 3.9 03:06:54 10° SE 03:12:00 36° ENE 03:17:04 10° N
Hubble Space Telescope 2.5 03:10:27 10° SW 03:13:15 18° S 03:16:04 10° SE
[s.n.70599] 3.2 03:11:13 10° WNW 03:13:38 42° SSW 03:16:03 10° SE
Cosmos 2341 Rocket 4.5 03:08:43 10° N 03:14:38 41° ENE 03:20:27 10° SSE
Meteor 2-11 Rocket 4.4 03:13:17 10° N 03:19:25 83° E 03:25:29 10° S
Cosmos 2082 Rocket 3.6 03:14:19 10° NW 03:19:39 41° WSW 03:24:56 10° S
Resurs 1-3 3.7 03:16:04 10° SSE 03:20:20 59° ENE 03:24:38 10° N
USA 234 3.5 03:16:13 10° ESE 03:22:34 57° NE 03:28:56 10° NW
NOSS 3-1 (C) 3.5 03:19:41 10° S 03:23:51 32° ESE 03:28:31 10° NE
IKONOS-2 4.5 03:20:47 10° NNE 03:24:58 64° E 03:29:07 10° S
Cosmos 1025 Rocket 3.7 03:23:47 10° N 03:27:48 35° ENE 03:31:49 10° SE
Okean O Rocket 2.6 03:26:49 10° SE 03:30:29 29° ENE 03:34:14 10° N
Cosmos 2366 rocket 4.3 03:27:56 10° N 03:34:03 47° ENE 03:40:07 10° SSE
YAOGAN 1 4.4 03:32:21 10° SSW 03:36:13 33° W 03:40:08 10° NNW
Resurs 01 Rocket 2.4 03:32:30 11° SE 03:36:15 34° ENE 03:40:14 10° N
Cosmos 1346 Rocket 2.7 03:32:48 10° S 03:36:35 60° E 03:40:21 10° NNE
CARTOSAT-1 4.4 03:35:11 13° SE 03:38:20 31° ENE 03:42:06 10° N
SJ-6B 2.9 03:34:36 10° S 03:38:31 81° WSW 03:42:30 10° NNW
Cosmos 1975 Rocket 4.1 03:36:31 10° NNE 03:40:08 25° ENE 03:42:18 17° ESE
Cosmos 2218 Rocket 4.2 03:35:16 10° N 03:41:31 52° E 03:47:40 10° SSE
Cosmos 1328 3.8 03:39:47 10° N 03:43:29 51° E 03:46:50 12° SSE
ATLAS 3B R/B 3.4 03:39:07 10° S 03:45:05 32° ESE 03:51:23 10° NE
Cosmos 1302 Rocket 4.0 03:41:24 10° SSW 03:46:40 89° ESE 03:51:56 10° NNE
Iridium 921 4.5 03:44:13 10° N 03:47:43 81° W 03:51:12 10° S
OAO 3 Rocket 3.3 03:43:02 10° W 03:47:51 62° S 03:51:07 20° ESE
Centaur D-1AR AC-36 4.4 03:46:04 10° S 03:49:26 16° SE 03:50:47 15° SE
Cosmos 1892 2.7 03:47:33 10° NNW 03:51:06 71° W 03:54:38 10° S
USA 281 3.7 03:46:26 16° ESE 03:51:19 43° ENE 03:57:26 10° N
USA 186 1.5 03:49:11 14° SSE 03:51:44 75° E 03:54:47 10° N
Cosmos 1782 Rocket 3.4 03:47:55 10° S 03:52:14 73° E 03:56:37 10° N
Meteor 1-21 Rocket 4.3 03:50:45 10° N 03:56:40 69° E 04:02:32 10° SSE
DELTA 2 R/B (1) 3.9 03:52:07 10° W 03:57:37 58° SSW 04:01:06 22° SE
SL-4 R/B 4.5 03:57:07 10° NW 03:59:09 14° NNW 04:01:07 10° NNE
CZ-4 R/B 2.2 03:55:27 10° S 03:59:18 49° W 04:03:07 10° NNW
Cosmos 1455 2.5 03:58:05 10° SSW 04:01:37 61° W 04:05:09 10° N
ATLAS 5 CENTAUR R/B 0.9 04:01:18 10° SSW 04:04:30 48° ESE 04:07:52 10° NE
SPOT 5 4.3 04:03:53 22° E 04:05:22 25° ENE 04:09:36 10° NNE
Cosmos 968 Rocket 3.8 04:02:16 10° NNW 04:07:19 65° WSW 04:12:18 10° S
Cosmos 864 Rocket 4.5 04:05:22 10° N 04:11:36 88° W 04:17:53 10° S
Cosmos 1953 4.2 04:09:35 10° SW 04:12:59 30° WNW 04:16:25 10° NNW
Meteor 1-11 4.4 04:10:46 10° N 04:16:17 52° ENE 04:18:52 30° SE
Feng Yun 1-1 Rocket 4.4 04:11:03 10° S 04:16:29 73° WSW 04:22:05 10° NNW
ERS-1 Rocket 4.5 04:16:11 19° ENE 04:16:29 19° ENE 04:19:56 10° NNE
Cosmos 1300 Rocket 3.8 04:14:14 10° SSW 04:18:33 70° W 04:22:56 10° N
CSL-04 Debris 4.4 04:15:49 11° S 04:20:58 72° WSW 04:26:26 10° NNW
USA 129 4.5 04:24:08 10° NNW 04:25:52 20° NW 04:25:52 20° NW
Okean 2 Rocket 4.2 04:29:19 28° ENE 04:29:19 28° ENE 04:32:09 10° NNE
SJ 16-02 1.5 04:24:46 10° NNW 04:29:05 67° WSW 04:30:56 32° S
MOS 1 4.4 04:28:08 36° SE 04:30:13 57° ENE 04:35:49 10° N
CZ-4C R/B 2.8 04:27:45 10° NNE 04:31:11 85° WNW 04:31:38 65° SSW
CSL-04 Rocket 4.1 04:26:37 14° S 04:31:25 63° WSW 04:36:54 10° NNW
In-Cosmos 22 Rocket 4.0 04:28:22 10° N 04:33:49 88° E 04:36:36 31° S
OAO 1 Rocket 4.5 04:28:34 10° WSW 04:33:49 61° S 04:34:58 48° ESE
IRS-1C Rocket 4.3 04:37:49 45° E 04:38:39 50° ENE 04:43:44 10° N
Cosmos 2297 Rocket 4.2 04:38:19 10° NNE 04:40:54 13° NE 04:41:24 13° NE
Cosmos 2369 Rocket 4.5 04:36:19 10° WSW 04:40:56 25° WNW 04:45:32 10° N
Cosmos 1992 Rocket 4.5 04:36:05 10° SSW 04:41:12 60° WNW 04:46:22 10° N
Cosmos 2098 Rocket 4.0 04:37:37 10° SSW 04:43:08 58° W 04:47:41 10° N
Sich 1 Rocket 4.4 04:45:04 37° NE 04:45:04 37° NE 04:48:04 10° NNE
Okean-O 2.5 04:43:30 60° S 04:44:18 86° WSW 04:48:43 10° NNW
MetOp-B 4.1 04:46:22 55° ESE 04:47:12 62° ENE 04:52:30 10° N
Terra 3.0 04:48:09 27° NE 04:48:09 27° NE 04:51:21 10° N
NOSS 3-1 (A) 2.7 04:45:56 10° SSW 04:50:40 83° SE 04:56:13 10° NE
Hubble Space Telescope 3.0 04:50:26 10° SW 04:51:24 14° SW 04:51:24 14° SW
USA 245 4.3 04:59:47 54° ENE 04:59:47 54° ENE 05:04:45 10° N
IRS-1A Rocket 4.3 05:03:42 65° SE 05:04:31 77° ENE 05:10:25 10° N
USA 234 4.2 05:03:04 28° S 05:05:40 39° SW 05:11:42 10° WNW
Ariane Rocket 3.8 05:07:21 39° NE 05:07:21 39° NE 05:11:10 10° N
Okean O Rocket 3.7 05:04:11 14° SW 05:06:44 22° W 05:10:10 10° NW
Resurs 01 Rocket 4.0 05:09:59 12° SW 05:12:45 19° W 05:15:56 10° NW
SPOT 3 Rocket 4.3 05:15:06 40° NE 05:15:06 40° NE 05:19:00 10° N
Cosmos 1486 Rocket 4.1 05:15:27 10° NNW 05:20:11 73° NNW 05:20:11 73° NNW
Iridium 4 Rocket 3.8 05:29:08 67° N 05:29:08 67° N 05:34:02 10° N
ATLAS 3B R/B 3.6 05:28:41 10° SW 05:35:27 51° NW 05:42:44 10° NNE
USA 281 4.4 05:33:18 26° SW 05:35:48 34° WSW 05:41:41 10° NW
Cosmos 1605 Rocket 4.3 05:34:51 10° N 05:40:11 58° NE 05:40:11 58° NE
SPOT 5 4.1 05:43:02 40° W 05:43:05 40° W 05:48:06 10° NNW
ATLAS 5 CENTAUR R/B 4.4 05:47:41 10° WNW 05:48:47 11° NW 05:49:56 10° NNW
ERS-1 Rocket 4.2 05:56:07 38° WNW 05:56:07 38° WNW 05:59:40 10° NNW
Cosmos 2227 Rocket 3.9 05:51:46 10° N 05:54:46 23° NNE 05:54:46 23° NNE
CZ-4C R/B 3.9 06:14:55 10° NNW 06:21:29 38° NE 06:21:29 38° NE
Terra 4.2 06:26:51 19° WNW 06:26:51 19° WNW 06:28:45 10° NW
Cosmos 2297 Rocket 3.6 06:20:04 10° NNW 06:23:12 34° NNW 06:23:12 34° NNW
COSMOS 2455 4.1 06:23:35 10° NNW 06:27:12 36° N 06:27:12 36° N
Cosmos 2263 Rocket 4.4 06:55:21 10° N 06:57:20 20° N 06:57:20 20° N
CENTAUR R/B 4.0 06:54:47 10° NNW 07:02:34 42° NE 07:02:34 42° NE
CZ-4C R/B 4.3 08:03:01 10° NW 08:06:34 31° NW 08:06:34 31° NW
Cosmos 2322 Rocket 4.4 08:48:27 20° NNE 08:48:27 20° NNE 08:50:03 10° NNE
CENTAUR R/B 4.4 08:45:21 10° NW 08:49:42 33° NW 08:49:42 33° NW
SL-16 R/B 4.3 09:04:26 22° N 09:04:26 22° N 09:06:27 10° N
USA 215 4.3 08:58:17 10° NE 09:02:42 39° N 09:02:42 39° N
CZ-2D R/B 4.1 09:28:22 10° NNE 09:30:50 25° NE 09:30:50 25° NE
USA 267 4.4 09:39:08 34° NNW 09:39:08 34° NNW 09:42:36 10° NW
SL-16 R/B 4.4 09:36:56 19° E 09:39:16 24° ENE 09:44:01 10° NNE
COSMOS 2428 4.1 09:52:37 34° NE 09:52:37 34° NE 09:56:00 10° NNE
CZ-2C R/B 4.0 09:58:45 37° NE 09:58:45 37° NE 10:02:31 10° N
Cosmos 2237 Rocket 4.2 09:58:31 21° E 09:58:31 21° E 10:02:05 10° NE
Lacrosse 5 3.9 10:00:41 23° N 10:00:41 23° N 10:03:10 10° NNE
CZ-2C R/B 4.5 10:01:13 10° NNE 10:04:32 35° NE 10:04:32 35° NE
Resurs 1-4 Rocket 3.4 10:08:07 10° NNE 10:11:14 37° N 10:11:14 37° N
Cosmos 2333 Rocket 3.9 10:16:50 23° NNW 10:16:50 23° NNW 10:19:47 10° N
Cosmos 2360 Rocket 4.1 10:20:20 20° NNW 10:20:20 20° NNW 10:23:01 10° N
Nadezhda 4 Rocket 4.1 10:28:34 69° ENE 10:28:34 69° ENE 10:34:11 10° N
Cosmos 2322 Rocket 4.4 10:30:14 14° NW 10:30:14 14° NW 10:32:12 10° NNW
NOSS 0 Rocket 4.1 10:32:14 64° E 10:32:14 64° E 10:37:57 10° NNE
IDEFIX/ARIANE 42P 4.0 10:27:32 10° N 10:30:18 29° NNW 10:30:18 29° NNW
Cosmos 2278 Rocket 3.8 10:28:24 10° N 10:33:28 32° ENE 10:38:29 10° ESE
Cosmos 2219 Rocket 3.6 10:37:32 27° NNW 10:37:32 27° NNW 10:41:00 10° N
RESURS DK-1 4.4 10:39:59 26° NNE 10:39:59 26° NNE 10:41:51 10° NNE
Meteor 2-17 Rocket 4.5 10:38:24 74° E 10:38:24 74° E 10:44:28 10° N
ATLAS 5 CENTAUR R/B 4.1 10:42:32 27° SSE 10:42:32 27° SSE 10:46:28 10° SE
CZ-2C R/B 4.4 10:47:13 10° NE 10:51:24 25° E 10:53:57 17° SE
ADEOS II 2.8 10:54:31 10° N 10:58:31 43° NW 10:58:31 43° NW
Meteor 1-19 Rocket 4.3 11:02:23 67° SSE 11:03:12 81° E 11:09:13 10° N
Cosmos 923 Rocket 4.1 11:03:38 67° SE 11:03:55 68° ESE 11:09:09 10° NNE
FENGYUN 3A 4.0 11:00:13 10° N 11:04:53 51° NW 11:04:53 51° NW
Cosmos 1092 Rocket 3.9 11:09:38 51° S 11:11:20 83° E 11:17:29 10° N
CZ-2D R/B 3.6 11:08:47 10° NNW 11:12:08 24° NW 11:12:08 24° NW
Envisat 3.6 11:08:23 10° NNE 11:13:20 52° E 11:15:01 37° SSE
Cosmos 1805 Rocket 3.9 11:13:37 10° N 11:17:00 54° NNW 11:17:00 54° NNW
UNK 3.7 11:18:31 67° NW 11:18:31 67° NW 11:22:34 10° NNW
Cosmos 1500 Rocket 4.4 11:14:06 10° NNW 11:17:05 40° NNW 11:17:05 40° NNW
Cosmos 2026 Rocket 3.9 11:16:45 48° S 11:18:40 87° W 11:25:03 10° N
SL-16 R/B 2.5 11:22:00 53° WSW 11:22:24 54° W 11:28:29 10° NNW
Cosmos 1733 4.0 11:21:17 10° N 11:23:46 41° N 11:23:46 41° N
YAOGAN 6 3.8 11:23:05 10° NNE 11:26:06 33° E 11:26:19 33° ESE
CZ-4 R/B 3.6 11:23:37 10° NNE 11:28:23 88° W 11:29:06 64° SSW
BlueWalker 3 4.2 11:25:31 10° NNW 11:28:40 24° NNE 11:31:49 10° E
Meteor 1-27 Rocket 3.9 11:29:04 51° WSW 11:29:50 55° WNW 11:35:27 10° N
Thor Agena Rocket 4.0 11:26:33 10° NNE 11:31:30 56° ESE 11:34:23 24° S
EO 1 Delta rocket 3.7 11:27:03 10° N 11:31:39 71° WNW 11:32:15 62° SW
Cosmos 1943 Rocket 2.9 11:26:51 10° NNW 11:32:26 55° ENE 11:37:57 10° SE
Meteor 2-4 Rocket 3.9 11:30:43 25° S 11:33:49 66° E 11:39:15 10° NNE
COSMOS 2428 4.1 11:34:36 23° WNW 11:35:01 23° NW 11:39:29 10° N
H-2A R/B 4.5 11:31:40 10° NE 11:35:10 19° E 11:38:43 10° SE
CZ-2C R/B 4.4 11:40:13 16° WNW 11:40:13 16° WNW 11:41:55 10° NW
Cosmos 1340 Rocket 2.5 11:39:28 75° S 11:39:46 89° ESE 11:43:38 10° N
ALOS 3.1 11:36:44 10° N 11:40:36 33° WNW 11:40:36 33° WNW
NOAA 11 4.2 11:35:26 10° NNE 11:40:55 82° ESE 11:44:06 26° S
Cosmos 2237 Rocket 2.5 11:40:21 42° W 11:41:35 49° WNW 11:47:06 10° NNE
Sich 1 3.9 11:38:41 10° NNW 11:41:29 33° NW 11:41:29 33° NW
Cosmos 1980 4.1 11:41:45 40° W 11:42:55 45° WNW 11:48:20 10° N
Lacrosse 5 4.4 11:41:56 10° NNW 11:43:07 11° NNW 11:44:18 10° N
Cosmos 2112 Rocket 3.9 11:41:26 39° SSW 11:43:28 85° WNW 11:48:51 10° NNE
Cosmos 1867 3.7 11:40:09 10° NW 11:45:23 48° WSW 11:50:34 10° S
Cosmos 1805 3.2 11:42:48 10° N 11:46:31 76° E 11:48:23 28° SSE
Cosmos 1328 Rocket 3.6 11:45:30 29° S 11:47:44 77° E 11:52:10 10° N
Meteor 1-11 Rocket 4.3 11:43:37 10° NNW 11:48:34 34° W 11:48:36 34° W
Resurs 1-4 Rocket 4.3 11:51:40 10° NW 11:52:17 10° WNW 11:52:17 10° WNW
Cosmos 1743 Rocket 4.5 11:48:43 10° NNW 11:51:42 30° WNW 11:51:42 30° WNW
